Regional Weather Roundup
Issued by NWS Cleveland, OH

Home | Current Version | Previous Version | Graphics & Text | Print | Product List | Glossary On
Versions: 1 2 3 4 5 6 7 8 9 10 11 12 13 14 15 16 17 18 19 20 21 22 23 24 25 26 27 28 29 30 31 32 33 34 35 36 37 38 39 40 41 42 43 44 45 46 47 48 49 50
000
ASUS41 KCLE 270112
RWRCLE
OHIO REGIONAL WEATHER ROUNDUP
NATIONAL WEATHER SERVICE WILMINGTON, OH
900 PM EDT FRI AUG 26 2016

NOTE: "FAIR" INDICATES FEW OR NO CLOUDS BELOW 12,000 FEET WITH NO
SIGNIFICANT WEATHER AND/OR OBSTRUCTIONS TO VISIBILITY.

OHZ001>008-015>018-024>027-034-035-043-044-270200-
   NORTHWEST OHIO

CITY           SKY/WX    TMP DP  RH WIND       PRES   REMARKS
DEFIANCE       FAIR      75  68  78 CALM      30.13R
FINDLAY        FAIR      80  62  54 CALM      30.12S
TOLEDO EXPRESS FAIR      71  68  90 CALM      30.13R
TOLEDO EXEC    FAIR      77  70  79 E5        30.14R
LIMA           FAIR      74  70  87 SE3       30.14R
$$

OHZ009>014-019>023-028>033-038-089-270200-
   NORTHEAST OHIO

CITY           SKY/WX    TMP DP  RH WIND       PRES   REMARKS
CLE-HOPKINS    FAIR      76  59  55 N3        30.17R
CLE-LAKEFRONT  FAIR      76  61  59 CALM      30.13R
CUY CO. ARPT   CLEAR     72  61  68 CALM      30.16R
LORAIN-ELYRIA  FAIR      67  59  75 N3        30.15R
ASHTABULA      FAIR      65  63  93 CALM      30.16R
AKRON-CANTON   FAIR      76  55  48 N5        30.15R
WOOSTER        FAIR      71  60  68 N7        30.16R
MANSFIELD      FAIR      73  62  68 N3        30.16R
YOUNGSTOWN     FAIR      73  62  68 NE6       30.15R
$$

OHZ042-051>053-060>062-070>072-077>081-270200-
  SOUTHWEST OHIO

CITY           SKY/WX    TMP DP  RH WIND       PRES   REMARKS
CINC-COVINGTON MOCLDY    81  67  62 SE16      30.13R THUNDER
CINC-LUNKEN    FAIR      79  74  84 N3        30.11
HAMILTON       FAIR      74  71  91 S3        30.13R
DAYTON         CLOUDY    80  72  76 N6        30.16R THUNDER
WRIGHT-PAT AFB TSTM      82  75  78 E3        30.13R
DAYTON GENERAL TSTM      72  67  84 NW13G22   30.14R
WILMINGTON     FAIR      76  74  93 CALM      30.13R
$$

OHZ036-037-039>041-045>050-054>059-063>069-073>076-082>088-270200-
  CENTRAL AND SOUTHEAST OHIO

CITY           SKY/WX    TMP DP  RH WIND       PRES   REMARKS
COLUMBUS       FAIR      80  68  66 NE3       30.11R
OSU AIRPORT    FAIR      77  68  73 N5        30.13R
BOLTON FIELD   FAIR      78  70  77 N3        30.14R
RICKENBACK AFB FAIR      79  71  77 NE6       30.12R
NEWARK         FAIR      76  70  82 N3        30.12R
MARION         FAIR      73  66  78 NE5       30.14S
LANCASTER      FAIR      77  74  90 CALM      30.12R
ZANESVILLE     FAIR      79  70  74 CALM      30.12R
NEW PHILLY     FAIR      75  64  68 CALM      30.14R
$$




USA.gov is the U.S. government's official web portal to all federal, state and local government web resources and services.